| time (UTC) | temp F | wind direction | speed MPH | gust MPH | rain 1hr in | rain 24hr in | rain mn in | humidity % | barometer mb |
| 20260831181526 | 71 | 212 | 4.0 | 7.0 | 0.00 | 0.00 | 0.00 | 41 | 1019.9 |
| 20260831181026 | 71 | 328 | 5.0 | 7.0 | 0.00 | 0.00 | 0.00 | 41 | 1019.7 |
| 20260831180521 | 71 | 273 | 4.0 | 6.0 | 0.00 | 0.00 | 0.00 | 41 | 1019.8 |
| 20260831180016 | 71 | 317 | 2.0 | 4.0 | 0.00 | 0.00 | 0.00 | 43 | 1020.0 |
| 20260831175511 | 71 | 343 | 5.0 | 8.0 | 0.00 | 0.00 | 0.00 | 42 | 1019.9 |
| 20260831175008 | 70 | 261 | 6.0 | 8.0 | 0.00 | 0.00 | 0.00 | 43 | 1019.9 |
| 20260831174503 | 70 | 253 | 2.0 | 6.0 | 0.00 | 0.00 | 0.00 | 44 | 1020.2 |
| 20260831174002 | 70 | 269 | 5.0 | 9.0 | 0.00 | 0.00 | 0.00 | 42 | 1020.0 |
| 20260831173500 | 70 | 270 | 4.0 | 9.0 | 0.00 | 0.00 | 0.00 | 43 | 1020.0 |
| 20260831172957 | 69 | 296 | 5.0 | 7.0 | 0.00 | 0.00 | 0.00 | 44 | 1020.0 |
| 20260831172452 | 69 | 311 | 6.0 | 10.0 | 0.00 | 0.00 | 0.00 | 43 | 1020.0 |
| 20260831171947 | 69 | 321 | 6.0 | 9.0 | 0.00 | 0.00 | 0.00 | 44 | 1019.8 |
| 20260831171443 | 68 | 28 | 5.0 | 7.0 | 0.00 | 0.00 | 0.00 | 44 | 1020.0 |
| 20260831170940 | 69 | 237 | 5.0 | 9.0 | 0.00 | 0.00 | 0.00 | 43 | 1019.9 |
| 20260831170436 | 68 | 317 | 4.0 | 8.0 | 0.00 | 0.00 | 0.00 | 45 | 1019.8 |
| 20260831165932 | 68 | 290 | 7.0 | 10.0 | 0.00 | 0.00 | 0.00 | 44 | 1019.9 |
| 20260831165428 | 68 | 279 | 6.0 | 9.0 | 0.00 | 0.00 | 0.00 | 44 | 1019.9 |
| 20260831164924 | 68 | 266 | 8.0 | 9.0 | 0.00 | 0.00 | 0.00 | 44 | 1019.8 |
| 20260831164421 | 67 | 310 | 6.0 | 9.0 | 0.00 | 0.00 | 0.00 | 46 | 1019.9 |
| 20260831163921 | 66 | 206 | 4.0 | 9.0 | 0.00 | 0.00 | 0.00 | 48 | 1019.8 |
| 20260831163416 | 66 | 269 | 6.0 | 9.0 | 0.00 | 0.00 | 0.00 | 48 | 1019.9 |
| 20260831162915 | 66 | 281 | 6.0 | 8.0 | 0.00 | 0.00 | 0.00 | 49 | 1019.9 |
| 20260831162410 | 65 | 280 | 5.0 | 10.0 | 0.00 | 0.00 | 0.00 | 50 | 1019.7 |
| 20260831161908 | 64 | 287 | 7.0 | 10.0 | 0.00 | 0.00 | 0.00 | 51 | 1019.9 |
| 20260831161405 | 64 | 257 | 6.0 | 10.0 | 0.00 | 0.00 | 0.00 | 52 | 1019.8 |
| 20260831160901 | 63 | 301 | 4.0 | 10.0 | 0.00 | 0.00 | 0.00 | 53 | 1020.0 |
| 20260831160355 | 62 | 258 | 5.0 | 8.0 | 0.00 | 0.00 | 0.00 | 55 | 1019.8 |
| 20260831155850 | 62 | 278 | 4.0 | 10.0 | 0.00 | 0.00 | 0.00 | 56 | 1020.0 |
| 20260831155350 | 62 | 252 | 3.0 | 7.0 | 0.00 | 0.00 | 0.00 | 56 | 1019.8 |
| 20260831154845 | 62 | 244 | 5.0 | 7.0 | 0.00 | 0.00 | 0.00 | 56 | 1019.8 |
| 20260831154342 | 61 | 266 | 5.0 | 9.0 | 0.00 | 0.00 | 0.00 | 56 | 1019.8 |
| 20260831153840 | 60 | 307 | 3.0 | 7.0 | 0.00 | 0.00 | 0.00 | 58 | 1019.8 |
| 20260831153336 | 60 | 252 | 3.0 | 6.0 | 0.00 | 0.00 | 0.00 | 59 | 1019.8 |
| 20260831152832 | 59 | 270 | 4.0 | 6.0 | 0.00 | 0.00 | 0.00 | 60 | 1019.9 |
| 20260831152328 | 60 | 263 | 4.0 | 6.0 | 0.00 | 0.00 | 0.00 | 59 | 1019.9 |
| 20260831151823 | 59 | 312 | 2.0 | 6.0 | 0.00 | 0.00 | 0.00 | 61 | 1019.9 |
| 20260831151322 | 58 | 280 | 5.0 | 7.0 | 0.00 | 0.00 | 0.00 | 61 | 1020.0 |
| 20260831150817 | 57 | 290 | 3.0 | 8.0 | 0.00 | 0.00 | 0.00 | 65 | 1019.8 |
| 20260831150313 | 56 | 246 | 4.0 | 7.0 | 0.00 | 0.00 | 0.00 | 65 | 1019.9 |
| 20260831145812 | 55 | 231 | 2.0 | 4.0 | 0.00 | 0.00 | 0.00 | 67 | 1019.7 |
| 20260831145308 | 55 | 260 | 4.0 | 6.0 | 0.00 | 0.00 | 0.00 | 67 | 1019.7 |
| 20260831144804 | 54 | 256 | 6.0 | 10.0 | 0.00 | 0.00 | 0.00 | 68 | 1019.6 |
| 20260831144300 | 54 | 264 | 4.0 | 8.0 | 0.00 | 0.00 | 0.00 | 69 | 1019.6 |
| 20260831143759 | 54 | 224 | 3.0 | 6.0 | 0.00 | 0.00 | 0.00 | 69 | 1019.3 |
| 20260831143255 | 53 | 248 | 3.0 | 4.0 | 0.00 | 0.00 | 0.00 | 69 | 1019.6 |
| 20260831142750 | 53 | 251 | 3.0 | 4.0 | 0.00 | 0.00 | 0.00 | 70 | 1019.3 |
| 20260831142245 | 53 | 262 | 1.0 | 6.0 | 0.00 | 0.00 | 0.00 | 71 | 1019.2 |
| 20260831141745 | 52 | 270 | 3.0 | 6.0 | 0.00 | 0.00 | 0.00 | 72 | 1019.3 |
| 20260831141245 | 51 | 283 | 4.0 | 6.0 | 0.00 | 0.00 | 0.00 | 73 | 1019.4 |
| 20260831140740 | 51 | 315 | 4.0 | 7.0 | 0.00 | 0.00 | 0.00 | 74 | 1019.2 |
| 20260831140240 | 51 | 249 | 3.0 | 4.0 | 0.00 | 0.00 | 0.00 | 75 | 1019.2 |
| 20260831135737 | 50 | 276 | 2.0 | 4.0 | 0.00 | 0.00 | 0.00 | 75 | 1019.1 |
| 20260831135234 | 50 | 251 | 2.0 | 4.0 | 0.00 | 0.00 | 0.00 | 75 | 1019.1 |
| 20260831134729 | 51 | 255 | 2.0 | 3.0 | 0.00 | 0.00 | 0.00 | 75 | 1019.2 |
| 20260831134226 | 50 | 290 | 2.0 | 4.0 | 0.00 | 0.00 | 0.00 | 76 | 1018.9 |
| 20260831133724 | 50 | 279 | 2.0 | 3.0 | 0.00 | 0.00 | 0.00 | 76 | 1018.8 |
| 20260831133219 | 49 | 271 | 2.0 | 3.0 | 0.00 | 0.00 | 0.00 | 77 | 1018.7 |
| 20260831132714 | 48 | 270 | 2.0 | 6.0 | 0.00 | 0.00 | 0.00 | 77 | 1018.7 |
| 20260831132214 | 48 | 293 | 4.0 | 7.0 | 0.00 | 0.00 | 0.00 | 78 | 1018.6 |
| 20260831131714 | 47 | 275 | 3.0 | 4.0 | 0.00 | 0.00 | 0.00 | 78 | 1018.2 |
| 20260831131211 | 47 | 261 | 4.0 | 4.0 | 0.00 | 0.00 | 0.00 | 78 | 1018.6 |
| 20260831130706 | 47 | 272 | 4.0 | 6.0 | 0.00 | 0.00 | 0.00 | 78 | 1018.5 |
| 20260831130201 | 47 | 285 | 4.0 | 6.0 | 0.00 | 0.00 | 0.00 | 77 | 1018.2 |
| 20260831125700 | 47 | 280 | 5.0 | 7.0 | 0.00 | 0.00 | 0.00 | 77 | 1018.4 |
| 20260831125156 | 47 | 292 | 4.0 | 6.0 | 0.00 | 0.00 | 0.00 | 77 | 1018.1 |
| 20260831124651 | 47 | 283 | 4.0 | 7.0 | 0.00 | 0.00 | 0.00 | 77 | 1018.0 |
| 20260831124147 | 47 | 286 | 4.0 | 6.0 | 0.00 | 0.00 | 0.00 | 77 | 1018.0 |
| 20260831123647 | 47 | 304 | 5.0 | 8.0 | 0.00 | 0.00 | 0.00 | 76 | 1018.0 |
| 20260831123146 | 47 | 279 | 4.0 | 7.0 | 0.00 | 0.00 | 0.00 | 76 | 1018.0 |
| 20260831122645 | 47 | 280 | 5.0 | 7.0 | 0.00 | 0.00 | 0.00 | 75 | 1017.8 |
| 20260831122142 | 47 | 253 | 2.0 | 4.0 | 0.00 | 0.00 | 0.00 | 76 | 1017.8 |
| 20260831121641 | 47 | 280 | 4.0 | 7.0 | 0.00 | 0.00 | 0.00 | 75 | 1017.8 |
| 20260831121137 | 48 | 252 | 3.0 | 4.0 | 0.00 | 0.00 | 0.00 | 75 | 1017.9 |
| 20260831120632 | 48 | 301 | 3.0 | 4.0 | 0.00 | 0.00 | 0.00 | 74 | 1017.9 |
| 20260831120127 | 48 | 280 | 4.0 | 6.0 | 0.00 | 0.00 | 0.00 | 74 | 1017.8 |
| 20260831115623 | 48 | 283 | 4.0 | 7.0 | 0.00 | 0.00 | 0.00 | 73 | 1017.8 |
| 20260831115119 | 48 | 273 | 4.0 | 7.0 | 0.00 | 0.00 | 0.00 | 73 | 1017.7 |
| 20260831114617 | 49 | 272 | 4.0 | 7.0 | 0.00 | 0.00 | 0.00 | 72 | 1017.8 |
| 20260831114113 | 49 | 300 | 4.0 | 7.0 | 0.00 | 0.00 | 0.00 | 71 | 1017.7 |
| 20260831113612 | 50 | 298 | 5.0 | 7.0 | 0.00 | 0.00 | 0.00 | 70 | 1017.7 |
| 20260831113108 | 50 | 288 | 5.0 | 8.0 | 0.00 | 0.00 | 0.00 | 69 | 1017.6 |
| 20260831112607 | 50 | 286 | 6.0 | 9.0 | 0.00 | 0.00 | 0.00 | 69 | 1017.5 |
| 20260831112102 | 49 | 241 | 4.0 | 8.0 | 0.00 | 0.00 | 0.00 | 71 | 1017.7 |
| 20260831111558 | 49 | 259 | 5.0 | 9.0 | 0.00 | 0.00 | 0.00 | 71 | 1017.5 |
| 20260831111053 | 50 | 270 | 5.0 | 8.0 | 0.00 | 0.00 | 0.00 | 70 | 1017.6 |
| 20260831110548 | 50 | 299 | 6.0 | 9.0 | 0.00 | 0.00 | 0.00 | 69 | 1017.6 |
| 20260831110043 | 50 | 286 | 4.0 | 7.0 | 0.00 | 0.00 | 0.00 | 69 | 1017.5 |
| 20260831105543 | 50 | 276 | 7.0 | 9.0 | 0.00 | 0.00 | 0.00 | 68 | 1017.3 |
| 20260831105038 | 51 | 253 | 5.0 | 8.0 | 0.00 | 0.00 | 0.00 | 67 | 1017.4 |
| 20260831104534 | 51 | 262 | 5.0 | 9.0 | 0.00 | 0.00 | 0.00 | 66 | 1017.3 |
| 20260831104030 | 51 | 271 | 5.0 | 10.0 | 0.00 | 0.00 | 0.00 | 66 | 1016.9 |
| 20260831103525 | 51 | 286 | 7.0 | 10.0 | 0.00 | 0.00 | 0.00 | 66 | 1017.0 |
| 20260831103021 | 51 | 243 | 4.0 | 9.0 | 0.00 | 0.00 | 0.00 | 66 | 1017.1 |
| 20260831102514 | 51 | 240 | 5.0 | 13.0 | 0.00 | 0.00 | 0.00 | 65 | 1017.1 |
| 20260831102010 | 51 | 275 | 6.0 | 9.0 | 0.00 | 0.00 | 0.00 | 66 | 1016.9 |
| 20260831101505 | 51 | 267 | 8.0 | 10.0 | 0.00 | 0.00 | 0.00 | 66 | 1016.8 |
| 20260831101001 | 51 | 266 | 4.0 | 10.0 | 0.00 | 0.00 | 0.00 | 65 | 1017.0 |
| 20260831100456 | 51 | 279 | 4.0 | 8.0 | 0.00 | 0.00 | 0.00 | 64 | 1016.8 |
| 20260831095951 | 52 | 249 | 3.0 | 6.0 | 0.00 | 0.00 | 0.00 | 64 | 1016.8 |
| 20260831095451 | 51 | 279 | 7.0 | 9.0 | 0.00 | 0.00 | 0.00 | 64 | 1016.8 |
| 20260831094946 | 51 | 264 | 4.0 | 7.0 | 0.00 | 0.00 | 0.00 | 65 | 1016.9 |
| 20260831094442 | 51 | 269 | 6.0 | 9.0 | 0.00 | 0.00 | 0.00 | 65 | 1016.8 |
| 20260831093937 | 51 | 244 | 5.0 | 9.0 | 0.00 | 0.00 | 0.00 | 64 | 1016.9 |
| 20260831093432 | 51 | 255 | 6.0 | 8.0 | 0.00 | 0.00 | 0.00 | 64 | 1016.9 |
| 20260831092929 | 51 | 275 | 5.0 | 9.0 | 0.00 | 0.00 | 0.00 | 64 | 1016.9 |
| 20260831092425 | 52 | 255 | 6.0 | 10.0 | 0.00 | 0.00 | 0.00 | 63 | 1017.0 |
| 20260831091920 | 52 | 263 | 6.0 | 14.0 | 0.00 | 0.00 | 0.00 | 62 | 1017.0 |
| 20260831091414 | 52 | 266 | 6.0 | 10.0 | 0.00 | 0.00 | 0.00 | 63 | 1016.8 |
| 20260831090909 | 51 | 291 | 6.0 | 8.0 | 0.00 | 0.00 | 0.00 | 64 | 1017.0 |
| 20260831090401 | 52 | 279 | 3.0 | 7.0 | 0.00 | 0.00 | 0.00 | 63 | 1016.9 |
| 20260831085857 | 52 | 259 | 5.0 | 13.0 | 0.00 | 0.00 | 0.00 | 62 | 1016.8 |
| 20260831085356 | 51 | 231 | 4.0 | 6.0 | 0.00 | 0.00 | 0.00 | 64 | 1016.8 |
| 20260831084855 | 52 | 242 | 4.0 | 8.0 | 0.00 | 0.00 | 0.00 | 64 | 1016.7 |
| 20260831084352 | 51 | 252 | 4.0 | 6.0 | 0.00 | 0.00 | 0.00 | 64 | 1016.4 |
| 20260831083848 | 51 | 253 | 3.0 | 8.0 | 0.00 | 0.00 | 0.00 | 66 | 1016.6 |
| 20260831083343 | 50 | 268 | 4.0 | 4.0 | 0.00 | 0.00 | 0.00 | 67 | 1016.5 |
| 20260831082842 | 50 | 294 | 4.0 | 7.0 | 0.00 | 0.00 | 0.00 | 67 | 1016.6 |
| 20260831082337 | 51 | 273 | 2.0 | 6.0 | 0.00 | 0.00 | 0.00 | 66 | 1016.3 |
| 20260831081834 | 51 | 257 | 3.0 | 6.0 | 0.00 | 0.00 | 0.00 | 65 | 1016.2 |
| 20260831081329 | 51 | 263 | 3.0 | 6.0 | 0.00 | 0.00 | 0.00 | 64 | 1016.2 |
| 20260831080825 | 52 | 259 | 3.0 | 7.0 | 0.00 | 0.00 | 0.00 | 63 | 1016.5 |
| 20260831080324 | 52 | 240 | 4.0 | 6.0 | 0.00 | 0.00 | 0.00 | 64 | 1016.4 |
| 20260831075820 | 51 | 255 | 8.0 | 13.0 | 0.00 | 0.00 | 0.00 | 63 | 1016.3 |
| 20260831075315 | 50 | 256 | 4.0 | 7.0 | 0.00 | 0.00 | 0.00 | 66 | 1016.3 |
| 20260831074810 | 50 | 245 | 5.0 | 7.0 | 0.00 | 0.00 | 0.00 | 67 | 1016.3 |
| 20260831074309 | 50 | 251 | 3.0 | 6.0 | 0.00 | 0.00 | 0.00 | 67 | 1016.2 |
| 20260831073805 | 50 | 247 | 3.0 | 4.0 | 0.00 | 0.00 | 0.00 | 68 | 1016.2 |
| 20260831073303 | 50 | 253 | 4.0 | 6.0 | 0.00 | 0.00 | 0.00 | 68 | 1016.2 |
| 20260831072759 | 50 | 268 | 3.0 | 6.0 | 0.00 | 0.00 | 0.00 | 68 | 1016.2 |
| 20260831072255 | 51 | 241 | 4.0 | 7.0 | 0.00 | 0.00 | 0.00 | 65 | 1016.3 |
| 20260831071750 | 53 | 245 | 4.0 | 7.0 | 0.00 | 0.00 | 0.00 | 61 | 1016.5 |
| 20260831071244 | 53 | 260 | 6.0 | 8.0 | 0.00 | 0.00 | 0.00 | 62 | 1016.2 |
| 20260831070739 | 53 | 254 | 5.0 | 7.0 | 0.00 | 0.00 | 0.00 | 62 | 1016.2 |
| 20260831070238 | 53 | 283 | 4.0 | 9.0 | 0.00 | 0.00 | 0.00 | 62 | 1016.2 |
| 20260831065737 | 53 | 275 | 6.0 | 9.0 | 0.00 | 0.00 | 0.00 | 61 | 1016.1 |
| 20260831065235 | 53 | 312 | 5.0 | 8.0 | 0.00 | 0.00 | 0.00 | 61 | 1016.4 |
| 20260831064731 | 53 | 266 | 6.0 | 10.0 | 0.00 | 0.00 | 0.00 | 61 | 1016.3 |
| 20260831064226 | 53 | 256 | 5.0 | 9.0 | 0.00 | 0.00 | 0.00 | 62 | 1016.2 |
| 20260831063722 | 53 | 275 | 6.0 | 9.0 | 0.00 | 0.00 | 0.00 | 61 | 1016.5 |
| 20260831063217 | 54 | 293 | 8.0 | 11.0 | 0.00 | 0.00 | 0.00 | 60 | 1016.6 |
| 20260831062716 | 54 | 280 | 5.0 | 8.0 | 0.00 | 0.00 | 0.00 | 59 | 1016.4 |
| 20260831062212 | 54 | 248 | 4.0 | 9.0 | 0.00 | 0.00 | 0.00 | 59 | 1016.5 |
| 20260831061709 | 54 | 255 | 5.0 | 10.0 | 0.00 | 0.00 | 0.00 | 58 | 1016.4 |
| 20260831061205 | 55 | 260 | 4.0 | 7.0 | 0.00 | 0.00 | 0.00 | 57 | 1016.6 |
| 20260831060701 | 55 | 234 | 5.0 | 10.0 | 0.00 | 0.00 | 0.00 | 57 | 1016.6 |
| 20260831060200 | 55 | 292 | 5.0 | 8.0 | 0.00 | 0.00 | 0.00 | 57 | 1016.4 |
| 20260831055700 | 55 | 261 | 3.0 | 8.0 | 0.00 | 0.14 | 0.14 | 56 | 1016.5 |
| 20260831055155 | 56 | 208 | 6.0 | 8.0 | 0.00 | 0.14 | 0.14 | 56 | 1016.5 |
| 20260831054655 | 56 | 249 | 8.0 | 11.0 | 0.00 | 0.14 | 0.14 | 54 | 1016.6 |
| 20260831054155 | 56 | 300 | 6.0 | 9.0 | 0.00 | 0.14 | 0.14 | 54 | 1016.4 |
| 20260831053649 | 56 | 290 | 7.0 | 13.0 | 0.00 | 0.14 | 0.14 | 53 | 1016.3 |
| 20260831053148 | 56 | 284 | 6.0 | 10.0 | 0.00 | 0.14 | 0.14 | 54 | 1016.3 |
| 20260831052648 | 57 | 274 | 6.0 | 11.0 | 0.00 | 0.14 | 0.14 | 53 | 1016.4 |
| 20260831052147 | 57 | 271 | 6.0 | 9.0 | 0.00 | 0.14 | 0.14 | 52 | 1016.3 |
| 20260831051645 | 57 | 268 | 7.0 | 11.0 | 0.00 | 0.14 | 0.14 | 52 | 1016.3 |
| 20260831051144 | 57 | 263 | 8.0 | 15.0 | 0.00 | 0.14 | 0.14 | 51 | 1016.2 |
| 20260831050639 | 57 | 259 | 8.0 | 10.0 | 0.00 | 0.14 | 0.14 | 51 | 1016.3 |
| 20260831050138 | 58 | 259 | 9.0 | 14.0 | 0.00 | 0.14 | 0.14 | 50 | 1016.2 |
| 20260831045638 | 58 | 293 | 8.0 | 15.0 | 0.00 | 0.14 | 0.14 | 49 | 1016.1 |
| 20260831045133 | 58 | 268 | 8.0 | 13.0 | 0.00 | 0.14 | 0.14 | 50 | 1016.3 |
| 20260831044628 | 59 | 321 | 11.0 | 15.0 | 0.00 | 0.14 | 0.14 | 48 | 1016.2 |
| 20260831044123 | 59 | 278 | 9.0 | 18.0 | 0.00 | 0.14 | 0.14 | 49 | 1016.3 |
| 20260831043619 | 58 | 306 | 9.0 | 18.0 | 0.00 | 0.14 | 0.14 | 49 | 1016.2 |
| 20260831043114 | 58 | 277 | 9.0 | 15.0 | 0.00 | 0.14 | 0.14 | 50 | 1016.2 |
| 20260831042613 | 58 | 281 | 8.0 | 13.0 | 0.00 | 0.14 | 0.14 | 51 | 1016.2 |
| 20260831042108 | 58 | 265 | 6.0 | 10.0 | 0.00 | 0.14 | 0.14 | 51 | 1016.2 |
| 20260831041604 | 58 | 294 | 7.0 | 13.0 | 0.00 | 0.14 | 0.14 | 50 | 1016.2 |
| 20260831041103 | 59 | 280 | 6.0 | 13.0 | 0.00 | 0.14 | 0.14 | 49 | 1016.1 |
| 20260831040558 | 59 | 283 | 8.0 | 13.0 | 0.00 | 0.14 | 0.14 | 49 | 1016.1 |
| 20260831040057 | 59 | 261 | 9.0 | 11.0 | 0.00 | 0.14 | 0.14 | 49 | 1015.9 |
| 20260831035555 | 59 | 290 | 6.0 | 11.0 | 0.00 | 0.14 | 0.14 | 49 | 1015.9 |
| 20260831035051 | 60 | 316 | 9.0 | 13.0 | 0.00 | 0.14 | 0.14 | 48 | 1016.1 |
| 20260831034550 | 60 | 313 | 9.0 | 15.0 | 0.00 | 0.14 | 0.14 | 48 | 1015.9 |
| 20260831034046 | 60 | 296 | 11.0 | 16.0 | 0.00 | 0.14 | 0.14 | 47 | 1015.8 |
| 20260831033541 | 60 | 275 | 10.0 | 13.0 | 0.00 | 0.14 | 0.14 | 47 | 1015.9 |
| 20260831033036 | 60 | 271 | 7.0 | 10.0 | 0.00 | 0.14 | 0.14 | 48 | 1015.9 |
| 20260831032535 | 59 | 295 | 6.0 | 13.0 | 0.00 | 0.14 | 0.14 | 48 | 1015.7 |
| 20260831032032 | 59 | 285 | 7.0 | 17.0 | 0.00 | 0.14 | 0.14 | 49 | 1015.9 |
| 20260831031531 | 59 | 268 | 6.0 | 7.0 | 0.00 | 0.14 | 0.14 | 50 | 1015.9 |
| 20260831031030 | 59 | 316 | 6.0 | 14.0 | 0.00 | 0.14 | 0.14 | 49 | 1015.6 |
| 20260831030530 | 60 | 290 | 7.0 | 11.0 | 0.00 | 0.14 | 0.14 | 48 | 1015.6 |
| 20260831030029 | 60 | 233 | 4.0 | 8.0 | 0.00 | 0.14 | 0.14 | 47 | 1015.7 |
| 20260831025527 | 60 | 255 | 9.0 | 15.0 | 0.00 | 0.14 | 0.14 | 46 | 1015.5 |
| 20260831025023 | 60 | 288 | 8.0 | 15.0 | 0.00 | 0.14 | 0.14 | 46 | 1015.4 |
| 20260831024518 | 60 | 257 | 9.0 | 13.0 | 0.00 | 0.14 | 0.14 | 46 | 1015.4 |
| 20260831024018 | 61 | 330 | 6.0 | 15.0 | 0.00 | 0.14 | 0.14 | 46 | 1015.3 |
| 20260831023515 | 61 | 261 | 6.0 | 18.0 | 0.00 | 0.14 | 0.14 | 46 | 1015.2 |
| 20260831023010 | 61 | 290 | 8.0 | 17.0 | 0.00 | 0.14 | 0.14 | 45 | 1015.2 |
| 20260831022509 | 61 | 260 | 9.0 | 17.0 | 0.00 | 0.14 | 0.14 | 45 | 1015.0 |
| 20260831022005 | 60 | 265 | 7.0 | 11.0 | 0.00 | 0.14 | 0.14 | 47 | 1015.2 |
| 20260831021503 | 61 | 334 | 8.0 | 11.0 | 0.00 | 0.14 | 0.14 | 46 | 1015.1 |
| 20260831021000 | 61 | 291 | 6.0 | 14.0 | 0.00 | 0.14 | 0.14 | 45 | 1015.0 |
| 20260831020500 | 61 | 287 | 7.0 | 14.0 | 0.00 | 0.14 | 0.14 | 45 | 1015.0 |
| 20260831015954 | 61 | 295 | 6.0 | 13.0 | 0.00 | 0.14 | 0.14 | 45 | 1015.1 |
| 20260831015451 | 61 | 265 | 10.0 | 13.0 | 0.00 | 0.14 | 0.14 | 44 | 1014.9 |
| 20260831014945 | 62 | 329 | 9.0 | 13.0 | 0.00 | 0.14 | 0.14 | 44 | 1014.9 |
| 20260831014440 | 62 | 334 | 11.0 | 17.0 | 0.00 | 0.14 | 0.14 | 44 | 1014.9 |
| 20260831013936 | 62 | 275 | 11.0 | 17.0 | 0.00 | 0.14 | 0.14 | 43 | 1014.9 |
| 20260831013432 | 62 | 299 | 6.0 | 14.0 | 0.00 | 0.14 | 0.14 | 43 | 1014.9 |
| 20260831012931 | 63 | 312 | 8.0 | 17.0 | 0.00 | 0.14 | 0.14 | 42 | 1014.6 |
| 20260831012427 | 62 | 275 | 6.0 | 13.0 | 0.00 | 0.14 | 0.14 | 43 | 1014.7 |
| 20260831011921 | 62 | 277 | 10.0 | 15.0 | 0.00 | 0.14 | 0.14 | 43 | 1014.7 |
| 20260831011416 | 63 | 277 | 12.0 | 16.0 | 0.00 | 0.14 | 0.14 | 42 | 1015.0 |
| 20260831010912 | 63 | 260 | 12.0 | 16.0 | 0.00 | 0.14 | 0.14 | 43 | 1014.7 |
| 20260831010411 | 64 | 224 | 10.0 | 17.0 | 0.00 | 0.14 | 0.14 | 42 | 1014.7 |
| 20260831005907 | 64 | 287 | 12.0 | 21.0 | 0.00 | 0.14 | 0.14 | 41 | 1014.9 |
| 20260831005403 | 64 | 272 | 12.0 | 18.0 | 0.00 | 0.14 | 0.14 | 41 | 1014.7 |
| 20260831004857 | 65 | 279 | 15.0 | 18.0 | 0.00 | 0.14 | 0.14 | 40 | 1014.7 |
| 20260831004353 | 64 | 342 | 14.0 | 21.0 | 0.00 | 0.14 | 0.14 | 41 | 1014.7 |
| 20260831003849 | 64 | 234 | 11.0 | 23.0 | 0.00 | 0.14 | 0.14 | 41 | 1014.7 |
| 20260831003345 | 65 | 276 | 13.0 | 22.0 | 0.00 | 0.14 | 0.14 | 40 | 1014.6 |
| 20260831002844 | 66 | 272 | 8.0 | 17.0 | 0.00 | 0.14 | 0.14 | 39 | 1014.7 |
| 20260831002343 | 65 | 296 | 14.0 | 25.0 | 0.00 | 0.14 | 0.14 | 39 | 1014.5 |
| 20260831001839 | 65 | 285 | 8.0 | 21.0 | 0.00 | 0.14 | 0.14 | 41 | 1014.7 |
| 20260831001339 | 65 | 313 | 12.0 | 19.0 | 0.00 | 0.14 | 0.14 | 40 | 1014.6 |
| 20260831000837 | 66 | 304 | 16.0 | 23.0 | 0.00 | 0.14 | 0.14 | 38 | 1014.7 |
| 20260831000333 | 67 | 302 | 12.0 | 22.0 | 0.00 | 0.14 | 0.14 | 38 | 1014.5 |
| 20260830235830 | 66 | 15 | 14.0 | 25.0 | 0.00 | 0.14 | 0.14 | 38 | 1014.6 |
| 20260830235325 | 66 | 251 | 13.0 | 22.0 | 0.00 | 0.14 | 0.14 | 39 | 1014.6 |
| 20260830234820 | 66 | 278 | 15.0 | 22.0 | 0.00 | 0.14 | 0.14 | 38 | 1014.6 |
| 20260830234316 | 67 | 269 | 11.0 | 26.0 | 0.00 | 0.14 | 0.14 | 38 | 1014.5 |
| 20260830233812 | 66 | 275 | 12.0 | 18.0 | 0.00 | 0.14 | 0.14 | 39 | 1014.4 |
| 20260830233307 | 67 | 285 | 12.0 | 19.0 | 0.00 | 0.14 | 0.14 | 37 | 1014.6 |
| 20260830232802 | 68 | 276 | 14.0 | 17.0 | 0.00 | 0.14 | 0.14 | 38 | 1014.4 |
| 20260830232258 | 66 | 280 | 10.0 | 18.0 | 0.00 | 0.14 | 0.14 | 39 | 1014.4 |
| 20260830231754 | 68 | 280 | 9.0 | 22.0 | 0.00 | 0.14 | 0.14 | 38 | 1014.5 |
| 20260830231254 | 68 | 286 | 12.0 | 19.0 | 0.00 | 0.14 | 0.14 | 40 | 1014.5 |
| 20260830230749 | 66 | 276 | 4.0 | 16.0 | 0.00 | 0.14 | 0.14 | 41 | 1014.5 |
| 20260830230244 | 67 | 299 | 10.0 | 19.0 | 0.00 | 0.14 | 0.14 | 39 | 1014.5 |
| 20260830225743 | 66 | 300 | 12.0 | 16.0 | 0.00 | 0.14 | 0.14 | 40 | 1014.7 |
| 20260830225239 | 66 | 271 | 9.0 | 19.0 | 0.00 | 0.14 | 0.14 | 40 | 1014.5 |
| 20260830224738 | 66 | 266 | 9.0 | 13.0 | 0.00 | 0.14 | 0.14 | 39 | 1014.7 |
| 20260830224233 | 66 | 303 | 13.0 | 17.0 | 0.00 | 0.14 | 0.14 | 40 | 1014.6 |
| 20260830223730 | 65 | 261 | 10.0 | 16.0 | 0.00 | 0.14 | 0.14 | 41 | 1014.5 |
| 20260830223225 | 65 | 259 | 11.0 | 14.0 | 0.00 | 0.14 | 0.14 | 41 | 1014.5 |
| 20260830222720 | 65 | 258 | 6.0 | 15.0 | 0.00 | 0.14 | 0.14 | 41 | 1014.6 |
| 20260830222215 | 65 | 255 | 13.0 | 17.0 | 0.00 | 0.14 | 0.14 | 40 | 1014.7 |
| 20260830221711 | 64 | 232 | 8.0 | 13.0 | 0.00 | 0.14 | 0.14 | 42 | 1015.0 |
| 20260830221208 | 64 | 241 | 6.0 | 15.0 | 0.00 | 0.14 | 0.14 | 42 | 1015.1 |
| 20260830220702 | 63 | 258 | 5.0 | 10.0 | 0.00 | 0.14 | 0.14 | 43 | 1015.1 |
| 20260830220201 | 63 | 263 | 7.0 | 10.0 | 0.00 | 0.14 | 0.14 | 43 | 1015.0 |
| 20260830215700 | 63 | 251 | 6.0 | 17.0 | 0.00 | 0.14 | 0.14 | 43 | 1015.1 |
| 20260830215155 | 64 | 250 | 6.0 | 13.0 | 0.00 | 0.14 | 0.14 | 42 | 1015.1 |
| 20260830214651 | 64 | 256 | 10.0 | 19.0 | 0.00 | 0.14 | 0.14 | 41 | 1015.2 |
| 20260830214150 | 65 | 266 | 7.0 | 16.0 | 0.00 | 0.14 | 0.14 | 41 | 1015.2 |
| 20260830213649 | 66 | 292 | 12.0 | 16.0 | 0.00 | 0.14 | 0.14 | 39 | 1015.1 |
| 20260830213145 | 65 | 240 | 9.0 | 14.0 | 0.00 | 0.14 | 0.14 | 40 | 1015.2 |
| 20260830212641 | 64 | 262 | 9.0 | 15.0 | 0.00 | 0.14 | 0.14 | 41 | 1015.1 |
| 20260830212136 | 64 | 241 | 9.0 | 14.0 | 0.00 | 0.14 | 0.14 | 43 | 1015.3 |
| 20260830211631 | 64 | 254 | 11.0 | 18.0 | 0.00 | 0.14 | 0.14 | 43 | 1015.5 |
| 20260830211130 | 64 | 232 | 7.0 | 14.0 | 0.00 | 0.14 | 0.14 | 43 | 1015.4 |
| 20260830210626 | 64 | 293 | 8.0 | 11.0 | 0.00 | 0.14 | 0.14 | 43 | 1015.3 |
| 20260830210125 | 65 | 244 | 10.0 | 11.0 | 0.00 | 0.14 | 0.14 | 41 | 1015.3 |
| 20260830205622 | 64 | 236 | 8.0 | 14.0 | 0.00 | 0.14 | 0.14 | 43 | 1015.4 |
| 20260830205118 | 66 | 265 | 11.0 | 15.0 | 0.00 | 0.14 | 0.14 | 41 | 1015.3 |
| 20260830204617 | 66 | 239 | 11.0 | 15.0 | 0.00 | 0.14 | 0.14 | 40 | 1015.4 |
| 20260830204116 | 65 | 261 | 7.0 | 14.0 | 0.00 | 0.14 | 0.14 | 42 | 1015.4 |
| 20260830203613 | 65 | 256 | 10.0 | 16.0 | 0.00 | 0.14 | 0.14 | 42 | 1015.2 |
| 20260830203108 | 64 | 242 | 9.0 | 15.0 | 0.00 | 0.14 | 0.14 | 43 | 1015.5 |
| 20260830202607 | 63 | 302 | 12.0 | 21.0 | 0.00 | 0.14 | 0.14 | 45 | 1015.4 |
| 20260830202103 | 63 | 277 | 9.0 | 17.0 | 0.00 | 0.14 | 0.14 | 46 | 1015.7 |
| 20260830201602 | 63 | 297 | 10.0 | 18.0 | 0.00 | 0.14 | 0.14 | 49 | 1015.6 |
| 20260830201057 | 62 | 310 | 11.0 | 23.0 | 0.00 | 0.14 | 0.14 | 47 | 1015.3 |
| 20260830200553 | 64 | 316 | 17.0 | 24.0 | 0.00 | 0.14 | 0.14 | 45 | 1015.2 |
| 20260830200052 | 65 | 286 | 13.0 | 18.0 | 0.00 | 0.14 | 0.14 | 41 | 1015.1 |
| 20260830195548 | 65 | 226 | 8.0 | 14.0 | 0.00 | 0.14 | 0.14 | 40 | 1014.7 |
| 20260830195045 | 65 | 293 | 9.0 | 17.0 | 0.00 | 0.14 | 0.14 | 41 | 1015.0 |
| 20260830194545 | 65 | 274 | 5.0 | 15.0 | 0.00 | 0.14 | 0.14 | 42 | 1014.9 |
| 20260830194044 | 65 | 281 | 12.0 | 16.0 | 0.00 | 0.14 | 0.14 | 41 | 1014.7 |
| 20260830193544 | 67 | 323 | 9.0 | 16.0 | 0.00 | 0.14 | 0.14 | 40 | 1014.7 |
| 20260830193039 | 68 | 303 | 6.0 | 10.0 | 0.00 | 0.14 | 0.14 | 39 | 1014.6 |
| 20260830192535 | 68 | 250 | 8.0 | 15.0 | 0.00 | 0.14 | 0.14 | 40 | 1014.7 |
| 20260830192035 | 67 | 300 | 13.0 | 17.0 | 0.00 | 0.14 | 0.14 | 38 | 1014.6 |
| 20260830191530 | 68 | 240 | 8.0 | 21.0 | 0.00 | 0.14 | 0.14 | 37 | 1014.7 |
| 20260830191025 | 67 | 249 | 7.0 | 13.0 | 0.00 | 0.14 | 0.14 | 37 | 1014.7 |
| 20260830190520 | 68 | 288 | 9.0 | 17.0 | 0.00 | 0.14 | 0.14 | 35 | 1014.6 |
| 20260830190016 | 68 | 263 | 13.0 | 21.0 | 0.00 | 0.14 | 0.14 | 35 | 1014.9 |
| 20260830185509 | 68 | 215 | 11.0 | 14.0 | 0.00 | 0.14 | 0.14 | 36 | 1014.6 |
| 20260830185005 | 67 | 241 | 11.0 | 15.0 | 0.00 | 0.14 | 0.14 | 37 | 1014.9 |
| 20260830184504 | 68 | 252 | 7.0 | 17.0 | 0.00 | 0.14 | 0.14 | 37 | 1014.9 |
| 20260830183954 | 67 | 275 | 5.0 | 11.0 | 0.00 | 0.14 | 0.14 | 40 | 1014.6 |
| 20260830183453 | 69 | 251 | 7.0 | 10.0 | 0.00 | 0.14 | 0.14 | 37 | 1014.7 |
| 20260830182949 | 68 | 250 | 10.0 | 14.0 | 0.00 | 0.14 | 0.14 | 37 | 1015.0 |
| 20260830182445 | 68 | 286 | 10.0 | 15.0 | 0.00 | 0.14 | 0.14 | 37 | 1015.0 |
| 20260830181941 | 68 | 251 | 5.0 | 9.0 | 0.00 | 0.14 | 0.14 | 39 | 1014.7 |